Time,TemperatureF,DewpointF,PressureIn,WindDirection,WindDirectionDegrees,WindSpeedMPH,WindSpeedGustMPH,Humidity,HourlyPrecipIn,Conditions,Clouds,dailyrainin,SolarRadiationWatts/m^2,SoftwareType,DateUTC
2013-07-29 00:02:00,58.1,56.1,30.12,WNW,301,0.0,0.0,93,0.00,,,0.00,0.0,meteohub,2013-07-29 04:02:00,
2013-07-29 00:03:00,58.1,56.1,30.12,WNW,301,0.0,0.0,93,0.00,,,0.00,0.0,meteohub,2013-07-29 04:03:00,
2013-07-29 00:05:00,57.9,55.9,30.12,WNW,301,0.0,0.0,93,0.00,,,0.00,0.0,meteohub,2013-07-29 04:05:00,
2013-07-29 00:10:00,57.7,55.8,30.12,WNW,301,0.0,0.0,93,0.00,,,0.00,0.0,meteohub,2013-07-29 04:10:00,
2013-07-29 00:15:00,57.7,55.8,30.12,WNW,301,0.0,0.0,93,0.00,,,0.00,0.0,meteohub,2013-07-29 04:15:00,
2013-07-29 00:20:00,57.6,55.6,30.12,WNW,301,0.0,0.0,93,0.00,,,0.00,0.0,meteohub,2013-07-29 04:20:00,
2013-07-29 00:26:00,57.4,55.4,30.12,WNW,301,0.0,0.0,93,0.00,,,0.00,0.0,meteohub,2013-07-29 04:26:00,
2013-07-29 00:31:00,57.0,55.0,30.12,WNW,301,0.0,0.0,93,0.00,,,0.00,0.0,meteohub,2013-07-29 04:31:00,
2013-07-29 00:36:00,56.8,54.9,30.12,WNW,301,0.0,0.0,93,0.00,,,0.00,0.0,meteohub,2013-07-29 04:36:00,
2013-07-29 00:41:00,56.7,54.7,30.12,WNW,301,0.0,0.0,93,0.00,,,0.00,0.0,meteohub,2013-07-29 04:41:00,
2013-07-29 00:46:00,56.5,54.5,30.12,WNW,301,0.0,0.0,93,0.00,,,0.00,0.0,meteohub,2013-07-29 04:46:00,
2013-07-29 00:51:00,56.3,54.3,30.12,WNW,301,0.0,0.0,93,0.00,,,0.00,0.0,meteohub,2013-07-29 04:51:00,
2013-07-29 00:57:00,56.1,54.1,30.13,WNW,301,0.0,0.0,93,0.00,,,0.00,0.0,meteohub,2013-07-29 04:57:00,
2013-07-29 01:02:00,55.9,54.0,30.13,WNW,301,0.0,0.0,93,0.00,,,0.00,0.0,meteohub,2013-07-29 05:02:00,
2013-07-29 01:07:00,55.9,54.3,30.13,WNW,301,0.0,0.0,94,0.00,,,0.00,0.0,meteohub,2013-07-29 05:07:00,
2013-07-29 01:12:00,55.8,54.1,30.13,WNW,301,0.0,0.0,94,0.00,,,0.00,0.0,meteohub,2013-07-29 05:12:00,
2013-07-29 01:17:00,55.6,54.0,30.12,WNW,301,0.0,0.0,94,0.00,,,0.00,0.0,meteohub,2013-07-29 05:17:00,
2013-07-29 01:22:00,55.4,53.8,30.12,WNW,301,0.0,0.0,94,0.00,,,0.00,0.0,meteohub,2013-07-29 05:22:00,
2013-07-29 01:27:00,55.2,53.6,30.12,WNW,301,0.0,0.0,94,0.00,,,0.00,0.0,meteohub,2013-07-29 05:27:00,
2013-07-29 01:32:00,55.2,53.6,30.12,WNW,301,0.0,0.0,94,0.00,,,0.00,0.0,meteohub,2013-07-29 05:32:00,
2013-07-29 01:37:00,55.2,53.8,30.12,WNW,301,0.0,0.0,95,0.00,,,0.00,0.0,meteohub,2013-07-29 05:37:00,
2013-07-29 01:42:00,55.0,53.6,30.12,WNW,301,0.0,0.0,95,0.00,,,0.00,0.0,meteohub,2013-07-29 05:42:00,
2013-07-29 01:47:00,55.0,53.6,30.12,WNW,301,0.0,0.0,95,0.00,,,0.00,0.0,meteohub,2013-07-29 05:47:00,
2013-07-29 01:52:00,54.9,53.4,30.12,WNW,301,0.0,0.0,95,0.00,,,0.00,0.0,meteohub,2013-07-29 05:52:00,
2013-07-29 01:57:00,54.9,53.4,30.12,WNW,301,0.0,0.0,95,0.00,,,0.00,0.0,meteohub,2013-07-29 05:57:00,
2013-07-29 02:03:00,54.7,53.2,30.12,WNW,301,0.0,0.0,95,0.00,,,0.00,0.0,meteohub,2013-07-29 06:03:00,
2013-07-29 02:08:00,54.7,53.2,30.12,WNW,301,0.0,0.0,95,0.00,,,0.00,0.0,meteohub,2013-07-29 06:08:00,
2013-07-29 02:13:00,54.3,52.9,30.13,WNW,301,0.0,0.0,95,0.00,,,0.00,0.0,meteohub,2013-07-29 06:13:00,
2013-07-29 02:18:00,54.3,52.9,30.12,WNW,301,0.0,0.0,95,0.00,,,0.00,0.0,meteohub,2013-07-29 06:18:00,
2013-07-29 02:23:00,54.1,52.7,30.12,WNW,301,0.0,0.0,95,0.00,,,0.00,0.0,meteohub,2013-07-29 06:23:00,
2013-07-29 02:28:00,54.1,53.1,30.12,WNW,301,0.0,0.0,96,0.00,,,0.00,0.0,meteohub,2013-07-29 06:28:00,
2013-07-29 02:34:00,54.0,52.5,30.13,WNW,301,0.0,0.0,95,0.00,,,0.00,0.0,meteohub,2013-07-29 06:34:00,
2013-07-29 02:39:00,54.0,52.5,30.12,WNW,301,0.0,0.0,95,0.00,,,0.00,0.0,meteohub,2013-07-29 06:39:00,
2013-07-29 02:44:00,53.8,52.3,30.12,WNW,301,0.0,0.0,95,0.00,,,0.00,0.0,meteohub,2013-07-29 06:44:00,
2013-07-29 02:49:00,53.8,52.7,30.12,WNW,301,0.0,0.0,96,0.00,,,0.00,0.0,meteohub,2013-07-29 06:49:00,
2013-07-29 02:54:00,53.6,52.5,30.12,WNW,301,0.0,0.0,96,0.00,,,0.00,0.0,meteohub,2013-07-29 06:54:00,
2013-07-29 02:59:00,53.4,52.3,30.12,WNW,301,0.0,0.0,96,0.00,,,0.00,0.0,meteohub,2013-07-29 06:59:00,
2013-07-29 03:04:00,53.4,52.0,30.12,WNW,301,0.0,0.0,95,0.00,,,0.00,0.0,meteohub,2013-07-29 07:04:00,
2013-07-29 03:10:00,53.2,51.8,30.12,WNW,301,0.0,0.0,95,0.00,,,0.00,0.0,meteohub,2013-07-29 07:10:00,
2013-07-29 03:15:00,53.1,52.0,30.13,WNW,301,0.0,0.0,96,0.00,,,0.00,0.0,meteohub,2013-07-29 07:15:00,
2013-07-29 03:20:00,53.1,52.0,30.12,WNW,301,0.0,0.0,96,0.00,,,0.00,0.0,meteohub,2013-07-29 07:20:00,
2013-07-29 03:25:00,53.1,52.0,30.12,WNW,301,0.0,0.0,96,0.00,,,0.00,0.0,meteohub,2013-07-29 07:25:00,
2013-07-29 03:30:00,52.9,51.8,30.12,WNW,301,0.0,0.0,96,0.00,,,0.00,0.0,meteohub,2013-07-29 07:30:00,
2013-07-29 03:36:00,52.7,51.6,30.13,WNW,301,0.0,0.0,96,0.00,,,0.00,0.0,meteohub,2013-07-29 07:36:00,
2013-07-29 03:41:00,52.5,51.4,30.13,WNW,301,0.0,0.0,96,0.00,,,0.00,0.0,meteohub,2013-07-29 07:41:00,
2013-07-29 03:46:00,52.3,51.3,30.13,WNW,301,0.0,0.0,96,0.00,,,0.00,0.0,meteohub,2013-07-29 07:46:00,
2013-07-29 03:52:00,52.5,51.4,30.13,WNW,301,0.0,0.0,96,0.00,,,0.00,0.0,meteohub,2013-07-29 07:52:00,
2013-07-29 03:57:00,52.5,51.6,30.13,WNW,301,0.0,0.0,97,0.00,,,0.00,0.0,meteohub,2013-07-29 07:57:00,
2013-07-29 04:02:00,52.7,51.8,30.13,WNW,301,0.0,0.0,97,0.00,,,0.00,0.0,meteohub,2013-07-29 08:02:00,
2013-07-29 04:07:00,52.5,51.6,30.14,WNW,301,0.0,0.0,97,0.00,,,0.00,0.0,meteohub,2013-07-29 08:07:00,
2013-07-29 04:13:00,52.3,51.3,30.13,WNW,301,0.0,0.0,96,0.00,,,0.00,0.0,meteohub,2013-07-29 08:13:00,
2013-07-29 04:18:00,52.3,51.3,30.14,WNW,301,0.0,0.0,96,0.00,,,0.00,0.0,meteohub,2013-07-29 08:18:00,
2013-07-29 04:23:00,52.2,51.1,30.14,WNW,301,0.0,0.0,96,0.00,,,0.00,0.0,meteohub,2013-07-29 08:23:00,
2013-07-29 04:28:00,52.2,51.3,30.14,WNW,301,0.0,0.0,97,0.00,,,0.00,0.0,meteohub,2013-07-29 08:28:00,
2013-07-29 04:33:00,52.2,51.3,30.14,WNW,301,0.0,0.0,97,0.00,,,0.00,0.0,meteohub,2013-07-29 08:33:00,
2013-07-29 04:39:00,52.0,51.1,30.14,WNW,301,0.0,0.0,97,0.00,,,0.00,0.0,meteohub,2013-07-29 08:39:00,
2013-07-29 04:44:00,52.2,51.3,30.14,WNW,301,0.0,0.0,97,0.00,,,0.00,0.0,meteohub,2013-07-29 08:44:00,
2013-07-29 04:49:00,52.2,51.3,30.14,WNW,301,0.0,0.0,97,0.00,,,0.00,0.0,meteohub,2013-07-29 08:49:00,
2013-07-29 04:54:00,52.2,51.3,30.14,WNW,301,0.0,0.0,97,0.00,,,0.00,0.0,meteohub,2013-07-29 08:54:00,
2013-07-29 04:59:00,52.0,51.1,30.14,WNW,301,0.0,0.0,97,0.00,,,0.00,0.0,meteohub,2013-07-29 08:59:00,
2013-07-29 05:04:00,52.0,51.1,30.14,WNW,301,0.0,0.0,97,0.00,,,0.00,0.0,meteohub,2013-07-29 09:04:00,
2013-07-29 05:10:00,51.8,50.9,30.14,WNW,301,0.0,0.0,97,0.00,,,0.00,0.0,meteohub,2013-07-29 09:10:00,
2013-07-29 05:15:00,51.8,50.9,30.14,WNW,301,0.0,0.0,97,0.00,,,0.00,0.0,meteohub,2013-07-29 09:15:00,
2013-07-29 05:20:00,51.6,50.7,30.14,WNW,301,0.0,0.0,97,0.00,,,0.00,0.0,meteohub,2013-07-29 09:20:00,
2013-07-29 05:25:00,51.6,50.7,30.14,WNW,301,0.0,0.0,97,0.00,,,0.00,0.0,meteohub,2013-07-29 09:25:00,
2013-07-29 05:30:00,51.6,50.7,30.15,WNW,301,0.0,0.0,97,0.00,,,0.00,0.0,meteohub,2013-07-29 09:30:00,
2013-07-29 05:35:00,51.6,50.7,30.15,WNW,301,0.0,0.0,97,0.00,,,0.00,0.0,meteohub,2013-07-29 09:35:00,
2013-07-29 05:41:00,51.4,50.5,30.15,WNW,301,0.0,0.0,97,0.00,,,0.00,0.0,meteohub,2013-07-29 09:41:00,
2013-07-29 05:46:00,51.4,50.5,30.16,WNW,301,0.0,0.0,97,0.00,,,0.00,0.0,meteohub,2013-07-29 09:46:00,
2013-07-29 05:51:00,51.3,50.4,30.16,WNW,301,0.0,0.0,97,0.00,,,0.00,0.0,meteohub,2013-07-29 09:51:00,
2013-07-29 05:56:00,51.1,50.2,30.16,WNW,301,0.0,0.0,97,0.00,,,0.00,0.0,meteohub,2013-07-29 09:56:00,
2013-07-29 06:01:00,50.9,50.0,30.16,WNW,301,0.0,0.0,97,0.00,,,0.00,0.0,meteohub,2013-07-29 10:01:00,
2013-07-29 06:09:00,50.9,50.0,30.16,WNW,301,0.0,0.0,97,0.00,,,0.00,0.0,meteohub,2013-07-29 10:09:00,
2013-07-29 06:14:00,50.9,50.0,30.17,WNW,301,0.0,0.0,97,0.00,,,0.00,0.0,meteohub,2013-07-29 10:14:00,
2013-07-29 06:20:00,50.7,49.8,30.17,WNW,301,0.0,0.0,97,0.00,,,0.00,0.0,meteohub,2013-07-29 10:20:00,
2013-07-29 06:26:00,50.7,49.8,30.17,WNW,301,0.0,0.0,97,0.00,,,0.00,0.0,meteohub,2013-07-29 10:26:00,
2013-07-29 06:32:00,50.7,49.8,30.17,WNW,301,0.0,0.0,97,0.00,,,0.00,0.0,meteohub,2013-07-29 10:32:00,
2013-07-29 06:37:00,50.7,49.8,30.17,WNW,301,0.0,0.0,97,0.00,,,0.00,0.0,meteohub,2013-07-29 10:37:00,
2013-07-29 06:45:00,50.7,49.8,30.17,WNW,301,0.0,0.0,97,0.00,,,0.00,0.0,meteohub,2013-07-29 10:45:00,
2013-07-29 06:50:00,50.5,49.6,30.17,WNW,301,0.0,0.0,97,0.00,,,0.00,9.0,meteohub,2013-07-29 10:50:00,
2013-07-29 06:55:00,50.5,50.0,30.17,WNW,301,0.0,0.0,98,0.00,,,0.00,11.0,meteohub,2013-07-29 10:55:00,
2013-07-29 07:01:00,50.5,50.0,30.17,WNW,301,0.0,0.0,98,0.00,,,0.00,14.0,meteohub,2013-07-29 11:01:00,
2013-07-29 07:06:00,50.5,50.0,30.17,WNW,301,0.0,0.0,98,0.00,,,0.00,18.0,meteohub,2013-07-29 11:06:00,
2013-07-29 07:11:00,50.5,50.0,30.17,WNW,301,0.0,0.0,98,0.00,,,0.00,19.0,meteohub,2013-07-29 11:11:00,
2013-07-29 07:17:00,50.7,50.2,30.18,WNW,301,0.0,0.0,98,0.00,,,0.00,23.0,meteohub,2013-07-29 11:17:00,
2013-07-29 07:23:00,50.7,50.2,30.18,WNW,301,0.0,0.0,98,0.00,,,0.00,25.0,meteohub,2013-07-29 11:23:00,
2013-07-29 07:28:00,50.7,50.2,30.18,WNW,301,0.0,0.0,98,0.00,,,0.00,25.0,meteohub,2013-07-29 11:28:00,
2013-07-29 07:33:00,51.1,50.5,30.17,WNW,301,0.0,0.0,98,0.00,,,0.00,28.0,meteohub,2013-07-29 11:33:00,
2013-07-29 07:38:00,51.4,50.9,30.18,WNW,301,0.0,0.0,98,0.00,,,0.00,30.0,meteohub,2013-07-29 11:38:00,
2013-07-29 07:44:00,51.8,51.3,30.18,WNW,301,0.0,0.0,98,0.00,,,0.00,32.0,meteohub,2013-07-29 11:44:00,
2013-07-29 07:49:00,52.2,51.8,30.18,WNW,301,0.0,0.0,99,0.00,,,0.00,35.0,meteohub,2013-07-29 11:49:00,
2013-07-29 07:55:00,52.9,52.5,30.18,WNW,301,0.0,0.0,99,0.00,,,0.00,39.0,meteohub,2013-07-29 11:55:00,
2013-07-29 08:00:00,53.8,53.4,30.18,WNW,301,0.0,0.0,99,0.00,,,0.00,39.0,meteohub,2013-07-29 12:00:00,
2013-07-29 08:05:00,54.0,53.6,30.18,WNW,301,0.0,0.0,99,0.00,,,0.00,37.0,meteohub,2013-07-29 12:05:00,
2013-07-29 08:11:00,54.7,54.3,30.18,WNW,301,0.0,0.0,99,0.00,,,0.00,56.0,meteohub,2013-07-29 12:11:00,
2013-07-29 08:17:00,55.8,55.4,30.18,WNW,301,0.0,0.0,99,0.00,,,0.00,86.0,meteohub,2013-07-29 12:17:00,
2013-07-29 08:24:00,56.7,56.3,30.18,WNW,301,0.0,0.0,99,0.00,,,0.00,232.0,meteohub,2013-07-29 12:24:00,
2013-07-29 08:30:00,58.6,58.3,30.18,WNW,301,1.0,1.0,99,0.00,,,0.00,272.0,meteohub,2013-07-29 12:30:00,
2013-07-29 08:35:00,59.4,59.0,30.18,WNW,301,0.0,1.0,99,0.00,,,0.00,281.0,meteohub,2013-07-29 12:35:00,
2013-07-29 08:41:00,60.3,60.3,30.18,WNW,301,1.0,1.0,100,0.00,,,0.00,202.0,meteohub,2013-07-29 12:41:00,
2013-07-29 08:47:00,61.5,61.5,30.18,West,273,0.0,3.0,100,0.00,,,0.00,320.0,meteohub,2013-07-29 12:47:00,
2013-07-29 08:52:00,62.2,61.9,30.18,WSW,252,0.0,4.0,99,0.00,,,0.00,306.0,meteohub,2013-07-29 12:52:00,
2013-07-29 08:58:00,63.3,60.6,30.18,West,276,1.0,4.0,91,0.00,,,0.00,345.0,meteohub,2013-07-29 12:58:00,
2013-07-29 09:03:00,64.9,61.0,30.18,WSW,252,2.0,4.0,87,0.00,,,0.00,366.0,meteohub,2013-07-29 13:03:00,
2013-07-29 09:09:00,65.8,61.5,30.18,WNW,296,2.0,4.0,86,0.00,,,0.00,383.0,meteohub,2013-07-29 13:09:00,
2013-07-29 09:16:00,66.7,61.3,30.18,SW,236,3.0,4.0,83,0.00,,,0.00,396.0,meteohub,2013-07-29 13:16:00,
2013-07-29 09:21:00,68.0,61.2,30.17,SSW,205,1.0,5.0,79,0.00,,,0.00,427.0,meteohub,2013-07-29 13:21:00,
2013-07-29 09:27:00,68.5,60.6,30.17,WNW,296,0.0,5.0,76,0.00,,,0.00,445.0,meteohub,2013-07-29 13:27:00,
2013-07-29 09:32:00,69.3,61.0,30.17,South,171,1.0,5.0,75,0.00,,,0.00,457.0,meteohub,2013-07-29 13:32:00,
2013-07-29 09:37:00,70.0,61.7,30.17,SSE,160,5.0,5.0,75,0.00,,,0.00,475.0,meteohub,2013-07-29 13:37:00,
2013-07-29 09:42:00,70.5,60.6,30.17,West,269,4.0,6.0,71,0.00,,,0.00,489.0,meteohub,2013-07-29 13:42:00,
2013-07-29 09:47:00,70.7,60.1,30.17,WSW,237,3.0,9.0,69,0.00,,,0.00,501.0,meteohub,2013-07-29 13:47:00,
2013-07-29 09:54:00,70.9,59.4,30.18,SW,229,3.0,9.0,67,0.00,,,0.00,515.0,meteohub,2013-07-29 13:54:00,
2013-07-29 10:05:00,71.2,59.7,30.18,South,190,2.0,9.0,67,0.00,,,0.00,536.0,meteohub,2013-07-29 14:05:00,
2013-07-29 10:12:00,72.1,60.6,30.17,SSW,205,6.0,9.0,67,0.00,,,0.00,573.0,meteohub,2013-07-29 14:12:00,
2013-07-29 10:17:00,72.3,60.8,30.17,West,262,3.0,9.0,67,0.00,,,0.00,587.0,meteohub,2013-07-29 14:17:00,
2013-07-29 10:22:00,72.9,59.9,30.17,WSW,246,5.0,8.0,64,0.00,,,0.00,598.0,meteohub,2013-07-29 14:22:00,
2013-07-29 10:27:00,72.7,59.4,30.17,WNW,284,2.0,8.0,63,0.00,,,0.00,615.0,meteohub,2013-07-29 14:27:00,
2013-07-29 10:32:00,73.0,61.0,30.17,WSW,248,1.0,9.0,66,0.00,,,0.00,606.0,meteohub,2013-07-29 14:32:00,
2013-07-29 10:37:00,73.6,59.7,30.17,SW,223,4.0,9.0,62,0.00,,,0.00,645.0,meteohub,2013-07-29 14:37:00,
2013-07-29 10:47:00,73.8,59.9,30.17,WSW,243,8.0,9.0,62,0.00,,,0.00,638.0,meteohub,2013-07-29 14:47:00,
2013-07-29 10:55:00,73.8,59.5,30.18,SW,224,6.0,11.0,61,0.00,,,0.00,670.0,meteohub,2013-07-29 14:55:00,
2013-07-29 11:00:00,73.8,58.5,30.18,NW,309,3.0,11.0,59,0.00,,,0.00,696.0,meteohub,2013-07-29 15:00:00,
2013-07-29 11:06:00,73.8,59.5,30.18,WNW,292,5.0,11.0,61,0.00,,,0.00,701.0,meteohub,2013-07-29 15:06:00,
2013-07-29 11:12:00,74.1,59.7,30.18,South,179,2.0,10.0,61,0.00,,,0.00,714.0,meteohub,2013-07-29 15:12:00,
2013-07-29 11:17:00,74.5,58.8,30.17,WNW,282,9.0,11.0,58,0.00,,,0.00,733.0,meteohub,2013-07-29 15:17:00,
2013-07-29 11:22:00,74.7,59.4,30.17,South,190,7.0,11.0,59,0.00,,,0.00,747.0,meteohub,2013-07-29 15:22:00,
2013-07-29 11:27:00,74.8,58.6,30.17,WSW,246,8.0,11.0,57,0.00,,,0.00,761.0,meteohub,2013-07-29 15:27:00,
2013-07-29 11:33:00,75.0,61.2,30.17,WSW,256,6.0,10.0,62,0.00,,,0.00,738.0,meteohub,2013-07-29 15:33:00,
2013-07-29 11:40:00,75.4,60.4,30.17,SSW,210,4.0,10.0,60,0.00,,,0.00,779.0,meteohub,2013-07-29 15:40:00,
2013-07-29 11:45:00,75.0,60.6,30.17,West,264,3.0,10.0,61,0.00,,,0.00,810.0,meteohub,2013-07-29 15:45:00,
2013-07-29 11:50:00,75.6,60.6,30.17,SE,144,3.0,12.0,60,0.00,,,0.00,847.0,meteohub,2013-07-29 15:50:00,
2013-07-29 11:55:00,75.9,59.5,30.17,West,269,9.0,9.0,57,0.00,,,0.00,786.0,meteohub,2013-07-29 15:55:00,
2013-07-29 12:00:00,75.9,60.1,30.17,South,181,2.0,11.0,58,0.00,,,0.00,846.0,meteohub,2013-07-29 16:00:00,
2013-07-29 12:05:00,75.9,59.5,30.17,SW,236,4.0,11.0,57,0.00,,,0.00,151.0,meteohub,2013-07-29 16:05:00,
2013-07-29 12:12:00,76.5,62.1,30.17,West,259,5.0,9.0,61,0.00,,,0.00,889.0,meteohub,2013-07-29 16:12:00,
2013-07-29 12:18:00,76.6,59.2,30.17,WNW,298,3.0,9.0,55,0.00,,,0.00,923.0,meteohub,2013-07-29 16:18:00,
2013-07-29 12:24:00,77.2,62.6,30.17,WSW,238,3.0,11.0,61,0.00,,,0.00,995.0,meteohub,2013-07-29 16:24:00,
2013-07-29 12:30:00,76.6,61.2,30.17,WSW,244,3.0,11.0,59,0.00,,,0.00,1055.0,meteohub,2013-07-29 16:30:00,
2013-07-29 12:37:00,76.6,60.8,30.17,WSW,257,4.0,11.0,58,0.00,,,0.00,949.0,meteohub,2013-07-29 16:37:00,
2013-07-29 12:42:00,76.6,59.2,30.17,NW,319,3.0,9.0,55,0.00,,,0.00,206.0,meteohub,2013-07-29 16:42:00,
2013-07-29 12:49:00,75.9,61.9,30.17,SW,232,2.0,10.0,62,0.00,,,0.00,216.0,meteohub,2013-07-29 16:49:00,
2013-07-29 12:54:00,76.6,61.2,30.17,SW,235,8.0,10.0,59,0.00,,,0.00,1123.0,meteohub,2013-07-29 16:54:00,
2013-07-29 12:59:00,76.5,60.6,30.17,WSW,253,6.0,10.0,58,0.00,,,0.00,278.0,meteohub,2013-07-29 16:59:00,
2013-07-29 13:08:00,75.6,59.7,30.17,West,265,3.0,10.0,58,0.00,,,0.00,221.0,meteohub,2013-07-29 17:08:00,
2013-07-29 13:13:00,75.7,62.8,30.17,North,8,3.0,10.0,64,0.00,,,0.00,1016.0,meteohub,2013-07-29 17:13:00,
2013-07-29 13:18:00,77.0,60.1,30.17,WNW,290,3.0,10.0,56,0.00,,,0.00,1060.0,meteohub,2013-07-29 17:18:00,
2013-07-29 13:24:00,78.6,62.6,30.17,SSE,157,4.0,9.0,58,0.00,,,0.00,1046.0,meteohub,2013-07-29 17:24:00,
2013-07-29 13:29:00,78.4,61.5,30.17,WSW,253,5.0,9.0,56,0.00,,,0.00,1020.0,meteohub,2013-07-29 17:29:00,
2013-07-29 13:35:00,77.7,60.3,30.17,West,265,2.0,11.0,55,0.00,,,0.00,946.0,meteohub,2013-07-29 17:35:00,
2013-07-29 13:41:00,78.1,62.1,30.16,WSW,250,5.0,11.0,58,0.00,,,0.00,954.0,meteohub,2013-07-29 17:41:00,
2013-07-29 13:47:00,77.5,62.6,30.16,WNW,296,1.0,9.0,60,0.00,,,0.00,991.0,meteohub,2013-07-29 17:47:00,
2013-07-29 13:52:00,78.4,63.0,30.16,SW,215,2.0,9.0,59,0.00,,,0.00,993.0,meteohub,2013-07-29 17:52:00,
2013-07-29 13:57:00,78.4,61.0,30.16,West,275,1.0,7.0,55,0.00,,,0.00,1069.0,meteohub,2013-07-29 17:57:00,
2013-07-29 14:02:00,78.3,61.3,30.16,West,268,4.0,10.0,56,0.00,,,0.00,1005.0,meteohub,2013-07-29 18:02:00,
2013-07-29 14:07:00,78.8,64.2,30.16,West,277,4.0,10.0,61,0.00,,,0.00,997.0,meteohub,2013-07-29 18:07:00,
2013-07-29 14:15:00,79.0,62.4,30.16,WNW,289,7.0,10.0,57,0.00,,,0.00,1007.0,meteohub,2013-07-29 18:15:00,
2013-07-29 14:22:00,78.4,61.9,30.16,West,264,3.0,14.0,57,0.00,,,0.00,1079.0,meteohub,2013-07-29 18:22:00,
2013-07-29 14:27:00,78.6,63.5,30.16,South,169,6.0,14.0,60,0.00,,,0.00,1007.0,meteohub,2013-07-29 18:27:00,
2013-07-29 14:32:00,79.3,61.2,30.15,WSW,249,4.0,10.0,54,0.00,,,0.00,981.0,meteohub,2013-07-29 18:32:00,
2013-07-29 14:37:00,78.4,61.0,30.16,SW,232,3.0,9.0,55,0.00,,,0.00,255.0,meteohub,2013-07-29 18:37:00,
2013-07-29 14:42:00,78.3,60.8,30.16,WSW,258,3.0,9.0,55,0.00,,,0.00,979.0,meteohub,2013-07-29 18:42:00,
2013-07-29 14:47:00,78.6,59.5,30.16,West,279,4.0,8.0,52,0.00,,,0.00,397.0,meteohub,2013-07-29 18:47:00,
2013-07-29 14:54:00,78.3,60.8,30.15,NW,304,5.0,9.0,55,0.00,,,0.00,334.0,meteohub,2013-07-29 18:54:00,
2013-07-29 15:02:00,78.4,63.0,30.15,West,260,5.0,11.0,59,0.00,,,0.00,991.0,meteohub,2013-07-29 19:02:00,
2013-07-29 15:10:00,78.1,61.5,30.15,SW,224,3.0,11.0,57,0.00,,,0.00,262.0,meteohub,2013-07-29 19:10:00,
2013-07-29 15:16:00,78.4,61.5,30.15,West,261,2.0,11.0,56,0.00,,,0.00,868.0,meteohub,2013-07-29 19:16:00,
2013-07-29 15:21:00,78.3,60.8,30.15,WNW,286,5.0,9.0,55,0.00,,,0.00,264.0,meteohub,2013-07-29 19:21:00,
2013-07-29 15:27:00,79.5,61.9,30.14,SSW,196,3.0,9.0,55,0.00,,,0.00,1004.0,meteohub,2013-07-29 19:27:00,
2013-07-29 15:32:00,80.6,64.0,30.14,SW,227,5.0,9.0,57,0.00,,,0.00,991.0,meteohub,2013-07-29 19:32:00,
2013-07-29 15:40:00,79.5,61.9,30.14,WSW,252,3.0,9.0,55,0.00,,,0.00,461.0,meteohub,2013-07-29 19:40:00,
2013-07-29 15:45:00,78.1,61.2,30.14,WNW,292,1.0,9.0,56,0.00,,,0.00,232.0,meteohub,2013-07-29 19:45:00,
2013-07-29 15:52:00,78.6,60.6,30.14,WNW,290,0.0,9.0,54,0.00,,,0.00,900.0,meteohub,2013-07-29 19:52:00,
2013-07-29 15:57:00,79.9,63.3,30.14,WNW,287,3.0,6.0,57,0.00,,,0.00,900.0,meteohub,2013-07-29 19:57:00,
2013-07-29 16:02:00,80.8,64.6,30.14,WNW,299,1.0,5.0,58,0.00,,,0.00,981.0,meteohub,2013-07-29 20:02:00,
2013-07-29 16:07:00,80.4,62.2,30.14,West,259,1.0,8.0,54,0.00,,,0.00,831.0,meteohub,2013-07-29 20:07:00,
2013-07-29 16:13:00,80.4,62.2,30.13,WSW,252,4.0,8.0,54,0.00,,,0.00,234.0,meteohub,2013-07-29 20:13:00,
2013-07-29 16:19:00,79.0,60.4,30.14,West,271,2.0,8.0,53,0.00,,,0.00,336.0,meteohub,2013-07-29 20:19:00,
2013-07-29 16:24:00,78.6,61.5,30.13,SW,232,3.0,8.0,56,0.00,,,0.00,807.0,meteohub,2013-07-29 20:24:00,
2013-07-29 16:30:00,79.9,61.7,30.14,SW,221,3.0,8.0,54,0.00,,,0.00,881.0,meteohub,2013-07-29 20:30:00,
2013-07-29 16:35:00,80.4,61.2,30.13,WNW,294,3.0,8.0,52,0.00,,,0.00,626.0,meteohub,2013-07-29 20:35:00,
2013-07-29 16:40:00,79.7,60.4,30.13,WNW,284,7.0,8.0,52,0.00,,,0.00,452.0,meteohub,2013-07-29 20:40:00,
2013-07-29 16:47:00,79.3,61.2,30.14,West,274,4.0,8.0,54,0.00,,,0.00,290.0,meteohub,2013-07-29 20:47:00,
2013-07-29 16:52:00,80.1,63.0,30.14,West,265,3.0,8.0,56,0.00,,,0.00,608.0,meteohub,2013-07-29 20:52:00,
2013-07-29 16:57:00,80.1,62.4,30.14,WSW,253,3.0,8.0,55,0.00,,,0.00,621.0,meteohub,2013-07-29 20:57:00,
2013-07-29 17:02:00,80.4,62.8,30.14,NW,317,1.0,8.0,55,0.00,,,0.00,601.0,meteohub,2013-07-29 21:02:00,
2013-07-29 17:07:00,80.4,62.2,30.13,WSW,241,2.0,8.0,54,0.00,,,0.00,668.0,meteohub,2013-07-29 21:07:00,
2013-07-29 17:12:00,80.8,63.7,30.14,South,187,7.0,8.0,56,0.00,,,0.00,677.0,meteohub,2013-07-29 21:12:00,
2013-07-29 17:17:00,80.8,63.1,30.14,SW,219,1.0,10.0,55,0.00,,,0.00,650.0,meteohub,2013-07-29 21:17:00,
2013-07-29 17:23:00,80.8,64.0,30.14,SW,228,7.0,10.0,57,0.00,,,0.00,638.0,meteohub,2013-07-29 21:23:00,
2013-07-29 17:29:00,80.4,62.8,30.14,West,269,7.0,10.0,55,0.00,,,0.00,601.0,meteohub,2013-07-29 21:29:00,
2013-07-29 17:34:00,79.5,60.8,30.14,SW,232,3.0,8.0,53,0.00,,,0.00,134.0,meteohub,2013-07-29 21:34:00,
2013-07-29 17:39:00,79.0,61.9,30.14,SSW,201,1.0,8.0,56,0.00,,,0.00,598.0,meteohub,2013-07-29 21:39:00,
2013-07-29 17:45:00,78.6,61.5,30.14,WNW,298,1.0,8.0,56,0.00,,,0.00,281.0,meteohub,2013-07-29 21:45:00,
2013-07-29 17:52:00,79.2,61.5,30.14,WSW,256,3.0,5.0,55,0.00,,,0.00,485.0,meteohub,2013-07-29 21:52:00,
2013-07-29 17:57:00,79.0,61.0,30.13,WSW,246,3.0,8.0,54,0.00,,,0.00,199.0,meteohub,2013-07-29 21:57:00,
2013-07-29 18:02:00,78.6,61.5,30.13,West,281,0.0,8.0,56,0.00,,,0.00,141.0,meteohub,2013-07-29 22:02:00,
2013-07-29 18:08:00,78.3,61.7,30.14,West,281,3.0,8.0,57,0.00,,,0.00,169.0,meteohub,2013-07-29 22:08:00,
2013-07-29 18:13:00,77.9,61.0,30.14,SW,232,3.0,7.0,56,0.00,,,0.00,199.0,meteohub,2013-07-29 22:13:00,
2013-07-29 18:21:00,77.9,61.5,30.14,WNW,286,3.0,7.0,57,0.00,,,0.00,383.0,meteohub,2013-07-29 22:21:00,
2013-07-29 18:26:00,79.2,61.2,30.13,West,263,3.0,5.0,54,0.00,,,0.00,371.0,meteohub,2013-07-29 22:26:00,
2013-07-29 18:32:00,79.7,62.6,30.13,West,264,2.0,5.0,56,0.00,,,0.00,323.0,meteohub,2013-07-29 22:32:00,
2013-07-29 18:37:00,79.7,62.6,30.14,WSW,256,4.0,6.0,56,0.00,,,0.00,373.0,meteohub,2013-07-29 22:37:00,
2013-07-29 18:43:00,79.7,63.1,30.14,West,269,3.0,6.0,57,0.00,,,0.00,357.0,meteohub,2013-07-29 22:43:00,
2013-07-29 18:48:00,79.2,62.6,30.14,SW,227,3.0,6.0,57,0.00,,,0.00,287.0,meteohub,2013-07-29 22:48:00,
2013-07-29 18:55:00,79.0,61.5,30.14,WNW,296,2.0,6.0,55,0.00,,,0.00,95.0,meteohub,2013-07-29 22:55:00,
2013-07-29 19:02:00,78.3,61.7,30.15,West,259,7.0,7.0,57,0.00,,,0.00,322.0,meteohub,2013-07-29 23:02:00,
2013-07-29 19:09:00,78.8,62.2,30.15,NW,314,3.0,8.0,57,0.00,,,0.00,332.0,meteohub,2013-07-29 23:09:00,
2013-07-29 19:15:00,79.5,63.0,30.15,NNE,15,2.0,8.0,57,0.00,,,0.00,248.0,meteohub,2013-07-29 23:15:00,
2013-07-29 19:20:00,79.2,62.1,30.15,WSW,252,2.0,7.0,56,0.00,,,0.00,151.0,meteohub,2013-07-29 23:20:00,
2013-07-29 19:27:00,78.3,61.7,30.15,West,267,2.0,7.0,57,0.00,,,0.00,141.0,meteohub,2013-07-29 23:27:00,
2013-07-29 19:33:00,77.9,61.9,30.16,West,260,2.0,7.0,58,0.00,,,0.00,98.0,meteohub,2013-07-29 23:33:00,
2013-07-29 19:38:00,77.7,61.3,30.16,WNW,302,3.0,7.0,57,0.00,,,0.00,53.0,meteohub,2013-07-29 23:38:00,
2013-07-29 19:44:00,77.5,61.2,30.16,West,271,1.0,6.0,57,0.00,,,0.00,40.0,meteohub,2013-07-29 23:44:00,
2013-07-29 19:50:00,77.2,60.8,30.16,West,281,1.0,5.0,57,0.00,,,0.00,40.0,meteohub,2013-07-29 23:50:00,
2013-07-29 19:55:00,76.3,62.8,30.16,West,271,0.0,5.0,63,0.00,,,0.00,86.0,meteohub,2013-07-29 23:55:00,
2013-07-29 20:00:00,75.7,64.0,30.16,West,271,0.0,3.0,67,0.00,,,0.00,74.0,meteohub,2013-07-30 00:00:00,
2013-07-29 20:07:00,74.8,63.5,30.17,West,271,0.0,2.0,68,0.00,,,0.00,46.0,meteohub,2013-07-30 00:07:00,
2013-07-29 20:12:00,74.1,63.7,30.17,West,271,2.0,2.0,70,0.00,,,0.00,30.0,meteohub,2013-07-30 00:12:00,
2013-07-29 20:17:00,73.8,63.3,30.17,West,271,1.0,2.0,70,0.00,,,0.00,26.0,meteohub,2013-07-30 00:17:00,
2013-07-29 20:22:00,73.2,63.7,30.17,West,271,0.0,2.0,72,0.00,,,0.00,19.0,meteohub,2013-07-30 00:22:00,
2013-07-29 20:28:00,73.0,63.5,30.17,West,271,0.0,2.0,72,0.00,,,0.00,14.0,meteohub,2013-07-30 00:28:00,
2013-07-29 20:33:00,72.7,63.5,30.18,West,271,0.0,2.0,73,0.00,,,0.00,12.0,meteohub,2013-07-30 00:33:00,
2013-07-29 20:41:00,71.4,63.5,30.18,West,271,0.0,0.0,76,0.00,,,0.00,7.0,meteohub,2013-07-30 00:41:00,
2013-07-29 20:46:00,71.1,63.5,30.18,West,271,0.0,0.0,77,0.00,,,0.00,5.0,meteohub,2013-07-30 00:46:00,
2013-07-29 20:52:00,70.3,63.9,30.18,West,271,0.0,0.0,80,0.00,,,0.00,0.0,meteohub,2013-07-30 00:52:00,
2013-07-29 20:58:00,70.3,63.9,30.18,West,271,0.0,0.0,80,0.00,,,0.00,0.0,meteohub,2013-07-30 00:58:00,
2013-07-29 21:05:00,69.8,63.7,30.19,West,271,0.0,0.0,81,0.00,,,0.00,0.0,meteohub,2013-07-30 01:05:00,
2013-07-29 21:10:00,69.4,63.3,30.19,West,271,0.0,0.0,81,0.00,,,0.00,0.0,meteohub,2013-07-30 01:10:00,
2013-07-29 21:15:00,69.1,63.3,30.19,West,271,1.0,0.0,82,0.00,,,0.00,0.0,meteohub,2013-07-30 01:15:00,
2013-07-29 21:20:00,68.7,63.0,30.19,West,271,0.0,1.0,82,0.00,,,0.00,0.0,meteohub,2013-07-30 01:20:00,
2013-07-29 21:27:00,68.2,62.8,30.19,West,271,0.0,1.0,83,0.00,,,0.00,0.0,meteohub,2013-07-30 01:27:00,
2013-07-29 21:32:00,67.8,62.8,30.19,West,271,0.0,1.0,84,0.00,,,0.00,0.0,meteohub,2013-07-30 01:32:00,
2013-07-29 21:37:00,67.5,62.4,30.19,West,271,0.0,1.0,84,0.00,,,0.00,0.0,meteohub,2013-07-30 01:37:00,
2013-07-29 21:42:00,66.9,61.9,30.19,West,271,0.0,0.0,84,0.00,,,0.00,0.0,meteohub,2013-07-30 01:42:00,
2013-07-29 21:47:00,66.7,62.1,30.19,West,271,0.0,0.0,85,0.00,,,0.00,0.0,meteohub,2013-07-30 01:47:00,
2013-07-29 21:56:00,66.6,61.9,30.19,West,271,0.0,0.0,85,0.00,,,0.00,0.0,meteohub,2013-07-30 01:56:00,
2013-07-29 22:02:00,66.0,62.1,30.19,West,271,0.0,0.0,87,0.00,,,0.00,0.0,meteohub,2013-07-30 02:02:00,
2013-07-29 22:07:00,65.7,61.7,30.20,West,271,0.0,0.0,87,0.00,,,0.00,0.0,meteohub,2013-07-30 02:07:00,
2013-07-29 22:12:00,65.5,61.9,30.20,West,271,0.0,1.0,88,0.00,,,0.00,0.0,meteohub,2013-07-30 02:12:00,
2013-07-29 22:23:00,64.9,61.7,30.20,West,271,0.0,1.0,89,0.00,,,0.00,0.0,meteohub,2013-07-30 02:23:00,
2013-07-29 22:29:00,64.8,61.5,30.21,West,271,0.0,0.0,89,0.00,,,0.00,0.0,meteohub,2013-07-30 02:29:00,
2013-07-29 22:34:00,64.4,61.3,30.21,West,271,0.0,0.0,90,0.00,,,0.00,0.0,meteohub,2013-07-30 02:34:00,
2013-07-29 22:40:00,64.2,61.2,30.21,West,271,0.0,0.0,90,0.00,,,0.00,0.0,meteohub,2013-07-30 02:40:00,
2013-07-29 22:45:00,64.0,61.0,30.21,West,271,0.0,0.0,90,0.00,,,0.00,0.0,meteohub,2013-07-30 02:45:00,
2013-07-29 22:50:00,63.9,61.2,30.21,West,271,0.0,0.0,91,0.00,,,0.00,0.0,meteohub,2013-07-30 02:50:00,
2013-07-29 22:56:00,63.7,61.0,30.21,West,271,0.0,0.0,91,0.00,,,0.00,0.0,meteohub,2013-07-30 02:56:00,
2013-07-29 23:01:00,63.5,60.8,30.21,West,271,0.0,0.0,91,0.00,,,0.00,0.0,meteohub,2013-07-30 03:01:00,
2013-07-29 23:07:00,63.3,60.6,30.21,West,271,0.0,0.0,91,0.00,,,0.00,0.0,meteohub,2013-07-30 03:07:00,
2013-07-29 23:12:00,63.1,60.8,30.21,West,271,0.0,0.0,92,0.00,,,0.00,0.0,meteohub,2013-07-30 03:12:00,
2013-07-29 23:20:00,63.0,60.6,30.21,West,271,0.0,0.0,92,0.00,,,0.00,0.0,meteohub,2013-07-30 03:20:00,
2013-07-29 23:25:00,62.8,60.4,30.21,West,271,0.0,0.0,92,0.00,,,0.00,0.0,meteohub,2013-07-30 03:25:00,
2013-07-29 23:32:00,62.4,60.1,30.21,West,271,0.0,0.0,92,0.00,,,0.00,0.0,meteohub,2013-07-30 03:32:00,
2013-07-29 23:37:00,62.4,60.1,30.21,West,271,0.0,0.0,92,0.00,,,0.00,0.0,meteohub,2013-07-30 03:37:00,
2013-07-29 23:43:00,62.2,59.9,30.21,West,271,0.0,0.0,92,0.00,,,0.00,0.0,meteohub,2013-07-30 03:43:00,
2013-07-29 23:52:00,61.9,59.5,30.22,West,271,0.0,0.0,92,0.00,,,0.00,0.0,meteohub,2013-07-30 03:52:00,
2013-07-29 23:57:00,61.5,59.2,30.22,West,271,0.0,0.0,92,0.00,,,0.00,0.0,meteohub,2013-07-30 03:57:00,